Погода в Надеждинском

Россия / Еврейская автономная область     48°17′35″N   133°11′18″E
темп.,
°C
ветер,
м/с
пор.,
м/с
влажн.,
%
обл.,
%
осадки,
мм/ч
давл.,
гПа
погр.,
м
19 апреля, пн
пн1901:00+7вюв11675 0.0 100510
04:00+6ссз117147 0.0 100411
07:00+5ссз22773 0.0 100316
10:00+11сз22533 0.0 1003567
13:00+15сз47355 0.0 10001848
16:00+18сз7112787 0.0 9972988
19:00+15зсз10124084 0.0 9981286
22:00+7сз1014385 0.0 1002969
20 апреля, вт
вт2001:00+3зсз1014360 0.0 10051012
04:000зсз1218310 0.0 10081186
07:00−1зсз1120360 0.0 10091585
10:00+2зсз1220262 0.0 10092230
13:00+5сз13172450 0.0 10102435
16:00+8сз1013220 0.0 10112271
19:00+8сз811230 0.0 10131554
22:00+5зсз613230 0.0 1016469
21 апреля, ср
ср2101:00+4зсз511290 0.0 1017279
04:00+2з411330 0.0 1017225
07:00+3з410330 0.0 1018189
10:00+11з57230 0.0 1019501
13:00+16зсз45210 0.0 10191140
16:00+19зсз45200 0.0 10171406
19:00+18з11270 0.0 101711
22:00+13ю22320 0.0 101913
22 апреля, чт
чт2201:00+11вюв23370 0.0 102018
04:00+8в33485 0.0 102041
07:00+7всв35525 0.0 102291
10:00+14в45330 0.0 1022465
13:00+21ююв45225 0.0 10201434
16:00+24ююз4621100 0.0 10182090
19:00+21ююз2227100 0.0 101818
22:00+17ю1132100 0.0 101811
23 апреля, пт
пт2301:00+15зсз2237100 0.0 101910
04:00+13ссз3344100 0.0 102027
07:00+12с2253100 0.0 102120
10:00+17ссз1239100 0.0 1021277
13:00+21зюз2232100 0.0 10211038
16:00+24зсз55287 0.0 10192570
19:00+20сз710376 0.0 1019743
22:00+15сз61043100 0.0 1021542